Time,TemperatureF,DewpointF,PressureIn,WindDirection,WindDirectionDegrees,WindSpeedMPH,WindSpeedGustMPH,Humidity,HourlyPrecipIn,Conditions,Clouds,dailyrainin,SoftwareType,DateUTC
2013-02-26 00:10:00,29.1,28.0,30.27,North,1,0.0,-999.0,94,-99.99,,,0.00,weatherlink.com 1.10,2013-02-26 05:10:00,
2013-02-26 00:25:00,29.1,28.0,30.27,North,1,2.0,-999.0,94,-99.99,,,0.00,weatherlink.com 1.10,2013-02-26 05:25:00,
2013-02-26 00:40:00,29.0,28.0,30.27,North,1,0.0,-999.0,94,-99.99,,,0.00,weatherlink.com 1.10,2013-02-26 05:40:00,
2013-02-26 00:55:00,29.0,28.0,30.28,North,1,0.0,-999.0,94,-99.99,,,0.00,weatherlink.com 1.10,2013-02-26 05:55:00,
2013-02-26 01:10:00,29.0,28.0,30.28,North,1,0.0,-999.0,94,-99.99,,,0.00,weatherlink.com 1.10,2013-02-26 06:10:00,
2013-02-26 01:26:00,29.0,28.0,30.28,North,1,0.0,-999.0,94,-99.99,,,0.00,weatherlink.com 1.10,2013-02-26 06:26:00,
2013-02-26 01:41:00,29.7,28.0,30.28,NW,326,2.0,-999.0,94,-99.99,,,0.00,weatherlink.com 1.10,2013-02-26 06:41:00,
2013-02-26 01:56:00,29.8,28.0,30.28,North,351,1.0,-999.0,94,-99.99,,,0.00,weatherlink.com 1.10,2013-02-26 06:56:00,
2013-02-26 02:11:00,29.9,28.0,30.28,NNW,338,1.0,-999.0,94,-99.99,,,0.00,weatherlink.com 1.10,2013-02-26 07:11:00,
2013-02-26 02:26:00,29.9,28.0,30.27,NW,319,0.0,-999.0,94,-99.99,,,0.00,weatherlink.com 1.10,2013-02-26 07:26:00,
2013-02-26 02:41:00,30.0,29.0,30.29,NNW,329,0.0,-999.0,94,-99.99,,,0.00,weatherlink.com 1.10,2013-02-26 07:41:00,
2013-02-26 02:56:00,29.4,28.0,30.30,NNW,329,0.0,-999.0,94,-99.99,,,0.00,weatherlink.com 1.10,2013-02-26 07:56:00,
2013-02-26 03:11:00,29.4,28.0,30.30,NNW,329,0.0,-999.0,94,-99.99,,,0.00,weatherlink.com 1.10,2013-02-26 08:11:00,
2013-02-26 03:26:00,29.3,28.0,30.30,North,357,1.0,-999.0,94,-99.99,,,0.00,weatherlink.com 1.10,2013-02-26 08:26:00,
2013-02-26 03:41:00,29.6,28.0,30.30,North,354,1.0,-999.0,94,-99.99,,,0.00,weatherlink.com 1.10,2013-02-26 08:41:00,
2013-02-26 03:56:00,29.7,28.0,30.30,North,359,1.0,-999.0,94,-99.99,,,0.00,weatherlink.com 1.10,2013-02-26 08:56:00,
2013-02-26 04:11:00,29.9,28.0,30.31,NW,313,2.0,-999.0,94,-99.99,,,0.00,weatherlink.com 1.10,2013-02-26 09:11:00,
2013-02-26 04:26:00,29.8,28.0,30.31,NNW,344,0.0,-999.0,94,-99.99,,,0.00,weatherlink.com 1.10,2013-02-26 09:26:00,
2013-02-26 04:41:00,29.3,28.0,30.32,NNW,344,0.0,-999.0,94,-99.99,,,0.00,weatherlink.com 1.10,2013-02-26 09:41:00,
2013-02-26 04:56:00,29.1,28.0,30.33,NNW,344,0.0,-999.0,94,-99.99,,,0.00,weatherlink.com 1.10,2013-02-26 09:56:00,
2013-02-26 05:11:00,29.0,28.0,30.32,NNW,344,0.0,-999.0,94,-99.99,,,0.00,weatherlink.com 1.10,2013-02-26 10:11:00,
2013-02-26 05:26:00,29.2,28.0,30.32,NNW,336,2.0,-999.0,94,-99.99,,,0.00,weatherlink.com 1.10,2013-02-26 10:26:00,
2013-02-26 05:41:00,29.6,28.0,30.32,NNW,333,3.0,-999.0,95,-99.99,,,0.00,weatherlink.com 1.10,2013-02-26 10:41:00,
2013-02-26 05:57:00,29.5,28.0,30.32,NNW,333,0.0,-999.0,94,-99.99,,,0.00,weatherlink.com 1.10,2013-02-26 10:57:00,
2013-02-26 06:11:00,29.1,28.0,30.33,NNW,333,0.0,-999.0,94,-99.99,,,0.00,weatherlink.com 1.10,2013-02-26 11:11:00,
2013-02-26 06:26:00,28.9,27.0,30.33,NNW,333,0.0,-999.0,94,-99.99,,,0.00,weatherlink.com 1.10,2013-02-26 11:26:00,
2013-02-26 06:35:00,28.7,27.0,30.34,NNW,333,0.0,-999.0,94,-99.99,,,0.00,weatherlink.com 1.10,2013-02-26 11:35:00,
2013-02-26 06:50:00,28.6,27.0,30.34,NNW,333,0.0,-999.0,94,-99.99,,,0.00,weatherlink.com 1.10,2013-02-26 11:50:00,
2013-02-26 07:05:00,28.8,27.0,30.34,NNW,333,1.0,-999.0,94,-99.99,,,0.00,weatherlink.com 1.10,2013-02-26 12:05:00,
2013-02-26 07:20:00,29.0,28.0,30.35,NNW,333,0.0,-999.0,94,-99.99,,,0.00,weatherlink.com 1.10,2013-02-26 12:20:00,
2013-02-26 07:35:00,29.2,28.0,30.35,NNW,333,0.0,-999.0,94,-99.99,,,0.00,weatherlink.com 1.10,2013-02-26 12:35:00,
2013-02-26 07:50:00,29.4,28.0,30.34,NNW,333,0.0,-999.0,94,-99.99,,,0.00,weatherlink.com 1.10,2013-02-26 12:50:00,
2013-02-26 08:05:00,29.6,28.0,30.35,NNW,333,0.0,-999.0,94,-99.99,,,0.00,weatherlink.com 1.10,2013-02-26 13:05:00,
2013-02-26 08:20:00,30.1,29.0,30.35,NNW,333,0.0,-999.0,95,-99.99,,,0.00,weatherlink.com 1.10,2013-02-26 13:20:00,
2013-02-26 08:35:00,29.9,28.0,30.36,NW,322,0.0,-999.0,94,-99.99,,,0.01,weatherlink.com 1.10,2013-02-26 13:35:00,
2013-02-26 08:50:00,31.4,30.0,30.35,NW,313,0.0,-999.0,95,-99.99,,,0.01,weatherlink.com 1.10,2013-02-26 13:50:00,
2013-02-26 09:05:00,31.1,29.0,30.36,NW,313,0.0,-999.0,93,-99.99,,,0.01,weatherlink.com 1.10,2013-02-26 14:05:00,
2013-02-26 09:20:00,32.5,31.0,30.36,NW,313,0.0,-999.0,94,-99.99,,,0.01,weatherlink.com 1.10,2013-02-26 14:20:00,
2013-02-26 09:35:00,33.4,31.0,30.36,NW,313,0.0,-999.0,92,-99.99,,,0.02,weatherlink.com 1.10,2013-02-26 14:35:00,
2013-02-26 09:50:00,33.8,31.0,30.36,NW,313,0.0,-999.0,88,-99.99,,,0.02,weatherlink.com 1.10,2013-02-26 14:50:00,
2013-02-26 10:05:00,33.7,30.0,30.36,SW,228,0.0,-999.0,86,-99.99,,,0.02,weatherlink.com 1.10,2013-02-26 15:05:00,
2013-02-26 10:20:00,34.4,30.0,30.35,SW,229,0.0,-999.0,85,-99.99,,,0.03,weatherlink.com 1.10,2013-02-26 15:20:00,
2013-02-26 10:35:00,35.2,31.0,30.34,SW,229,0.0,-999.0,84,-99.99,,,0.03,weatherlink.com 1.10,2013-02-26 15:35:00,
2013-02-26 10:50:00,34.7,30.0,30.34,SSW,210,1.0,-999.0,83,-99.99,,,0.03,weatherlink.com 1.10,2013-02-26 15:50:00,
2013-02-26 11:05:00,34.8,30.0,30.34,SE,134,2.0,-999.0,84,-99.99,,,0.03,weatherlink.com 1.10,2013-02-26 16:05:00,
2013-02-26 11:20:00,35.1,30.0,30.34,SE,138,2.0,-999.0,83,-99.99,,,0.04,weatherlink.com 1.10,2013-02-26 16:20:00,
2013-02-26 11:35:00,35.2,30.0,30.35,South,174,5.0,-999.0,82,-99.99,,,0.04,weatherlink.com 1.10,2013-02-26 16:35:00,
2013-02-26 11:50:00,35.6,31.0,30.34,South,186,0.0,-999.0,82,-99.99,,,0.04,weatherlink.com 1.10,2013-02-26 16:50:00,
2013-02-26 12:05:00,35.6,30.0,30.34,SSE,159,0.0,-999.0,81,-99.99,,,0.04,weatherlink.com 1.10,2013-02-26 17:05:00,
2013-02-26 12:20:00,36.4,31.0,30.33,SE,141,0.0,-999.0,80,-99.99,,,0.04,weatherlink.com 1.10,2013-02-26 17:20:00,
2013-02-26 12:35:00,36.4,31.0,30.32,SSE,151,0.0,-999.0,80,-99.99,,,0.04,weatherlink.com 1.10,2013-02-26 17:35:00,
2013-02-26 12:50:00,36.5,31.0,30.33,South,175,0.0,-999.0,80,-99.99,,,0.04,weatherlink.com 1.10,2013-02-26 17:50:00,
2013-02-26 13:05:00,36.6,31.0,30.34,SSW,202,2.0,-999.0,80,-99.99,,,0.04,weatherlink.com 1.10,2013-02-26 18:05:00,
2013-02-26 13:20:00,36.5,31.0,30.33,SSW,202,3.0,-999.0,80,-99.99,,,0.04,weatherlink.com 1.10,2013-02-26 18:20:00,
2013-02-26 13:35:00,37.3,32.0,30.33,SSW,202,0.0,-999.0,80,-99.99,,,0.04,weatherlink.com 1.10,2013-02-26 18:35:00,
2013-02-26 13:50:00,37.4,31.0,30.32,SSW,198,0.0,-999.0,77,-99.99,,,0.04,weatherlink.com 1.10,2013-02-26 18:50:00,
2013-02-26 14:06:00,37.3,31.0,30.32,SE,124,0.0,-999.0,78,-99.99,,,0.04,weatherlink.com 1.10,2013-02-26 19:06:00,
2013-02-26 14:20:00,37.1,31.0,30.31,East,83,4.0,-999.0,78,-99.99,,,0.04,weatherlink.com 1.10,2013-02-26 19:20:00,
2013-02-26 14:36:00,37.2,31.0,30.29,East,84,3.0,-999.0,79,-99.99,,,0.04,weatherlink.com 1.10,2013-02-26 19:36:00,
2013-02-26 14:51:00,37.2,31.0,30.29,SE,132,0.0,-999.0,79,-99.99,,,0.04,weatherlink.com 1.10,2013-02-26 19:51:00,
2013-02-26 15:06:00,37.1,31.0,30.29,ESE,121,0.0,-999.0,79,-99.99,,,0.04,weatherlink.com 1.10,2013-02-26 20:06:00,
2013-02-26 15:21:00,37.1,31.0,30.29,ESE,116,0.0,-999.0,80,-99.99,,,0.04,weatherlink.com 1.10,2013-02-26 20:21:00,
2013-02-26 15:36:00,37.0,31.0,30.28,SE,136,4.0,-999.0,79,-99.99,,,0.04,weatherlink.com 1.10,2013-02-26 20:36:00,
2013-02-26 15:51:00,36.6,31.0,30.27,SE,137,0.0,-999.0,80,-99.99,,,0.04,weatherlink.com 1.10,2013-02-26 20:51:00,
2013-02-26 16:06:00,36.4,31.0,30.28,SE,124,5.0,-999.0,81,-99.99,,,0.04,weatherlink.com 1.10,2013-02-26 21:06:00,
2013-02-26 16:21:00,36.3,31.0,30.29,South,172,4.0,-999.0,81,-99.99,,,0.04,weatherlink.com 1.10,2013-02-26 21:21:00,
2013-02-26 16:36:00,36.2,31.0,30.28,SE,132,1.0,-999.0,82,-99.99,,,0.04,weatherlink.com 1.10,2013-02-26 21:36:00,
2013-02-26 16:51:00,35.9,31.0,30.27,South,179,0.0,-999.0,82,-99.99,,,0.04,weatherlink.com 1.10,2013-02-26 21:51:00,
2013-02-26 17:06:00,35.7,31.0,30.27,SSE,165,2.0,-999.0,83,-99.99,,,0.04,weatherlink.com 1.10,2013-02-26 22:06:00,
2013-02-26 17:21:00,35.6,31.0,30.27,South,186,0.0,-999.0,83,-99.99,,,0.04,weatherlink.com 1.10,2013-02-26 22:21:00,
2013-02-26 17:36:00,35.5,31.0,30.27,SE,132,0.0,-999.0,83,-99.99,,,0.04,weatherlink.com 1.10,2013-02-26 22:36:00,
2013-02-26 17:51:00,35.3,31.0,30.27,South,174,5.0,-999.0,83,-99.99,,,0.04,weatherlink.com 1.10,2013-02-26 22:51:00,
2013-02-26 18:06:00,35.2,31.0,30.27,South,175,0.0,-999.0,84,-99.99,,,0.04,weatherlink.com 1.10,2013-02-26 23:06:00,
2013-02-26 18:21:00,35.2,31.0,30.27,SSE,166,4.0,-999.0,84,-99.99,,,0.04,weatherlink.com 1.10,2013-02-26 23:21:00,
2013-02-26 18:36:00,35.1,31.0,30.26,SSE,162,7.0,-999.0,84,-99.99,,,0.04,weatherlink.com 1.10,2013-02-26 23:36:00,
2013-02-26 18:51:00,34.9,31.0,30.27,South,174,2.0,-999.0,85,-99.99,,,0.04,weatherlink.com 1.10,2013-02-26 23:51:00,
2013-02-26 19:06:00,34.7,31.0,30.27,South,172,2.0,-999.0,85,-99.99,,,0.04,weatherlink.com 1.10,2013-02-27 00:06:00,
2013-02-26 19:21:00,34.5,31.0,30.27,SSE,159,2.0,-999.0,85,-99.99,,,0.04,weatherlink.com 1.10,2013-02-27 00:21:00,
2013-02-26 19:36:00,34.4,30.0,30.27,South,170,7.0,-999.0,85,-99.99,,,0.04,weatherlink.com 1.10,2013-02-27 00:36:00,
2013-02-26 19:51:00,34.4,30.0,30.27,SE,125,4.0,-999.0,84,-99.99,,,0.04,weatherlink.com 1.10,2013-02-27 00:51:00,
2013-02-26 20:06:00,34.4,30.0,30.28,South,176,2.0,-999.0,84,-99.99,,,0.04,weatherlink.com 1.10,2013-02-27 01:06:00,
2013-02-26 20:21:00,34.4,30.0,30.27,SSE,165,1.0,-999.0,84,-99.99,,,0.04,weatherlink.com 1.10,2013-02-27 01:21:00,
2013-02-26 20:36:00,34.4,30.0,30.27,SSE,166,5.0,-999.0,83,-99.99,,,0.04,weatherlink.com 1.10,2013-02-27 01:36:00,
2013-02-26 20:51:00,34.3,29.0,30.27,SE,131,2.0,-999.0,82,-99.99,,,0.04,weatherlink.com 1.10,2013-02-27 01:51:00,
2013-02-26 21:06:00,34.1,29.0,30.26,SSE,165,4.0,-999.0,82,-99.99,,,0.04,weatherlink.com 1.10,2013-02-27 02:06:00,
2013-02-26 21:36:00,33.6,29.0,30.25,South,175,4.0,-999.0,83,-99.99,,,0.04,weatherlink.com 1.10,2013-02-27 02:36:00,
2013-02-26 21:51:00,33.4,29.0,30.25,South,170,2.0,-999.0,82,-99.99,,,0.04,weatherlink.com 1.10,2013-02-27 02:51:00,
2013-02-26 22:06:00,33.3,28.0,30.25,South,178,5.0,-999.0,82,-99.99,,,0.04,weatherlink.com 1.10,2013-02-27 03:06:00,
2013-02-26 22:21:00,33.2,28.0,30.24,South,179,0.0,-999.0,82,-99.99,,,0.04,weatherlink.com 1.10,2013-02-27 03:21:00,
2013-02-26 22:36:00,33.1,28.0,30.23,SSE,147,5.0,-999.0,81,-99.99,,,0.04,weatherlink.com 1.10,2013-02-27 03:36:00,
2013-02-26 22:51:00,33.0,28.0,30.22,SE,138,0.0,-999.0,81,-99.99,,,0.04,weatherlink.com 1.10,2013-02-27 03:51:00,
2013-02-26 23:06:00,32.8,28.0,30.21,SE,144,0.0,-999.0,81,-99.99,,,0.04,weatherlink.com 1.10,2013-02-27 04:06:00,
2013-02-26 23:21:00,32.7,28.0,30.20,SSE,151,4.0,-999.0,82,-99.99,,,0.04,weatherlink.com 1.10,2013-02-27 04:21:00,
2013-02-26 23:36:00,32.6,28.0,30.19,ESE,116,5.0,-999.0,82,-99.99,,,0.04,weatherlink.com 1.10,2013-02-27 04:36:00,
2013-02-26 23:51:00,32.6,28.0,30.19,SSE,152,7.0,-999.0,83,-99.99,,,0.04,weatherlink.com 1.10,2013-02-27 04:51:00,